Regional Weather Roundup
Issued by NWS

Home | Current Version | Previous Version | Graphics & Text | Print | Product List | Glossary On
Versions: 1 2 3 4 5 6 7 8 9 10 11 12 13 14 15 16 17 18 19 20 21 22 23 24 25 26 27 28 29 30 31 32 33 34 35 36 37 38 39 40 41 42 43 44 45 46 47 48 49 50
000
ASUS43 KLMK 191510
RWRKY
KENTUCKY REGIONAL WEATHER ROUNDUP
NATIONAL WEATHER SERVICE LOUISVILLE KY
1100 AM EDT SUN OCT 19 2014

NOTE "FAIR" INDICATES FEW OR NO CLOUDS BELOW 12,000 FEET
WITH NO SIGNIFICANT WEATHER AND/OR OBSTRUCTIONS TO VISIBILITY.

KYZ001>023-026-027-061>063-070>075-191600-
WESTERN AND SOUTH CENTRAL KENTUCKY

CITY           SKY/WX    TMP DP  RH WIND       PRES   REMARKS
PADUCAH        SUNNY     54  46  74 CALM      30.27R
HENDERSON      MOSUNNY   52  39  62 SE3       30.27S
OWENSBORO      MOSUNNY   52  44  74 S6        30.27R
HOPKINSVILLE   SUNNY     53  43  68 E8        30.25S
BOWLING GREEN  MOSUNNY   54  42  64 VRB5      30.26S
GLASGOW        CLOUDY    51  42  71 NE3       30.26R
$$

KYZ024-025-028>034-038-045-046-053-191600-
NORTH CENTRAL KENTUCKY

CITY           SKY/WX    TMP DP  RH WIND       PRES   REMARKS
LOUISVILLE/SDF CLOUDY    51  40  65 SE6       30.26R
LOUISVILLE/LOU CLOUDY    50  40  68 VRB3      30.27R
FORT KNOX      CLOUDY    50  39  67 NE5       30.24S
$$

KYZ035>037-039>044-047>052-055>060-089>105-191600-
NORTHEAST KENTUCKY

CITY           SKY/WX    TMP DP  RH WIND       PRES   REMARKS
LEXINGTON      MOSUNNY   51  38  60 CALM      30.25R
COVINGTON      PTSUNNY   49  37  63 W3        30.24R
FRANKFORT      CLOUDY    50  39  66 CALM      30.25R
$$

KYZ054-064>069-076>088-106>120-191600-
SOUTHEAST KENTUCKY

CITY           SKY/WX    TMP DP  RH WIND       PRES   REMARKS
JACKSON        CLOUDY    48  37  65 SE5       30.24S
LONDON         CLOUDY    49  38  65 S3        30.25S
SOMERSET       CLOUDY    46  41  81 E5        30.27R
MIDDLESBORO    CLOUDY    49  40  70 CALM      30.26S
MONTICELLO     CLOUDY    51  41  69 SE7       30.27R
$$




USA.gov is the U.S. government's official web portal to all federal, state and local government web resources and services.